Terug naar catalogus

CZ-3C DEB

ActiefGTO
NORAD 39338·DEBRIS·🇨🇳 China

Gelanceerd Oct 31, 2010 vanaf Xichang Satellite Launch Center

Loading…

TLE

VerouderdSource: Space-Track

Epoch: Sep 13, 2026, 11:35 UTC

1 39338U 10057C   26256.48331388 -.00000099  00000-0  82768-3 0  9991
2 39338  20.2097 335.6843 7189040  37.6484 355.3333  2.25954619106398

Volg CZ-3C DEB in realtime met AllMySat

Download on the App Store